Other Surface Observations
Issued by NWS Charleston, SC

Home | Current Version | Previous Version | Text Only | Print | Product List | Glossary On
Versions: 1 2 3 4 5 6 7 8 9 10 11 12 13 14 15 16 17 18 19 20 21 22 23 24 25 26 27 28 29 30 31 32 33 34 35 36 37 38 39 40 41 42 43 44 45 46 47 48 49 50
443
SXUS52 KCHS 050528
OSOCHS

MARINE OBSERVATIONS
NATIONAL WEATHER SERVICE CHARLESTON SC
100 AM EDT THU MAY 05 2016

...DOWNTOWN CHARLESTON AND HARBOR...

CITY           SKY/WX    TMP DP  RH WIND       PRES   REMARKS
WATERFRONT PRK   N/A     66  51  58 VRB3      29.62F

...LAKE MOULTRIE...

CITY           SKY/WX    TMP DP  RH WIND       PRES   REMARKS
PINOPOLIS        N/A     68  54  60 W8        29.55F

...LAKE AND SUPPLEMENTAL COASTAL OBSERVATIONS...

STATION/POSITION TIME  TEMP    WIND        PRES    WAVE   SWELL
                       AIR SEA DIR/SP/G            HT/PER HT/PER/DIR
                 (UTC) (F)     (DEG/KT/KT) (MB)    (FT/S) (FT/S/D)
FORT PULASKI     0500   66 75  300/ 10/ 12 1004.6F
SAPELO ISLAND    0500   64     310/  8     1005.0S
WINYAH BAY       0400   66     310/  7     1002.0F
LAKE MURRAY      0500   64     270/ 15/ 18 1003.0F
ACE BASIN NERRS  0400   65     300/  2     1004.0F


...C-MAN AND BUOY OBSERVATIONS...

STATION/POSITION TIME  TEMP    WIND        PRES    WAVE   SWELL
                       AIR SEA DIR/SP/G            HT/PER HT/PER/DIR
                 (UTC) (F)     (DEG/KT/KT) (MB)    (FT/S) (FT/S/D)
BUOY 41004       0450   72 74  320/ 19/ 23 1002.4R   3/ 4   2/ 7
BUOY 41008       NOT AVBL
FOLLY BEACH CMAN 0500   63     300/  5/  8 1003.8R
CAPERS NS BUOY   0508   68 71  320/ 12/ 17 1003.4R
FRIPP NS BUOY    0508   69 71  320/ 16/ 19 1003.3R
5E ST. MARYS GA  0421      72                N/A     3/ 7


STATION/POSITION TIME  TEMP    WIND        PRES    WAVE   SWELL
                       AIR SEA DIR/SP/G            HT/PER HT/PER/DIR
                 (UTC) (F)     (DEG/KT/KT) (MB)    (FT/S) (FT/S/D)
FRYING PAN BUOY  0500   71 71  290/ 14/ 17 1001.5R
BUOY 41025       0450   62 70   20/ 17/ 21 1002.3R   4/ 8   2/160/ 8
CAPE LOOKOUT NC  0500   64      40/ 19/ 21 1001.6R
BUOY 41002       0450   73 73  200/ 17/ 21 1004.2R   6/ 7   2/ 80/ 9
BUOY 41010       0420   73 79  200/ 14/ 17 1002.5
ST AUGUSTINE FL  0500   64 71  320/  7/  9 1005.8R

$$




USA.gov is the U.S. government's official web portal to all federal, state and local government web resources and services.